Zurück zum Katalog

COSMOS 1228

AktivMilitärLEO
NORAD 12107·PAYLOAD·🇷🇺 Russia

Gestartet Dec 23, 1980 von Plesetsk Cosmodrome

Loading…

Nächste Überflüge (nächste 24 Stunden)

TLE

AktuellSource: Space-Track

Epoche: Sep 14, 2026, 04:01 UTC

1 12107U 80102A   26257.16752222  .00000010  00000-0  15747-3 0  9999
2 12107  73.9977 167.9407 0045634 204.7694 307.6172 12.58650396100814

Verfolge COSMOS 1228 in Echtzeit mit AllMySat

Download on the App Store